User: anonymous   Login
Location: Fontevrault
(47.1823°N, 0.0493°E)
Time: 14:27:20
(UTC+00:00)
Language:

USA 245 - Orbit

View from above orbital plane
View from above orbital plane
View from above satellite
View from above satellite

Ground track
Ground track

The orbit data is extracted from the following two-line orbital elements,

1 39232U 13043A   21262.83566920 0.00008500  00000-0  86861-4 0    01
2 39232  97.8839 324.4072 0536398 340.3912  19.6086 14.76034052    05
Epoch (UTC): 19 September 2021 20:03:21
Eccentricity: 0.0536398
inclination: 97.8839°
perigee height: 265 km
apogee height: 1018 km
right ascension of ascending node: 324.4072°
argument of perigee: 340.3912°
revolutions per day: 14.76034052
mean anomaly at epoch: 19.6086°
orbit number at epoch: 0

The dashed part of the orbit path shows where the satellite is in the earth's shadow,  

DLR